Regional Weather Roundup
Issued by NWS State College, PA

Home | Current Version | Previous Version | Graphics & Text | Print | Product List | Glossary Off
Versions: 1 2 3 4 5 6 7 8 9 10 11 12 13 14 15 16 17 18 19 20 21 22 23 24 25 26 27 28 29 30 31 32 33 34 35 36 37 38 39 40 41 42 43 44 45 46 47 48 49 50

000
ASUS41 KCTP 101703
RWRCTP

REGIONAL WEATHER ROUNDUP
NATIONAL WEATHER SERVICE STATE COLLEGE PA
1200 PM EST WED FEB 10 2016

Note: "fair" indicates few or no clouds below 12,000 feet with no
significant weather and/or obstructions to visibility.

* = STATION THAT DOES NOT REPORT PRECIPITATION /E.G. RAIN...SNOW...ETC/
    THUNDER OR FOG.

PAZ002>004-007>009-013>016-020>023-029>032-101800-
WESTERN PENNSYLVANIA

CITY           SKY/WX    TMP DP  RH WIND       PRES   REMARKS
ERIE           SNOW      23  19  85 W6        29.73F VSB 1/4
MEADVILLE      LGT SNOW  21  13  71 W17G25    29.71S WCI   7
FRANKLIN*      CLOUDY    19  10  68 W17       29.73S WCI   4
NEW CASTLE     FLURRIES  22  13  68 SW15G23   29.79S WCI   9
BEAVER COUNTY  LGT SNOW  19  14  79 W13G20    29.80R WCI   7
BUTLER*        CLOUDY    19  10  68 W16G26    29.81S WCI   5
PITTSBURGH INT LGT SNOW  18  10  71 W14G23    29.80S WCI   4
PITTSBURGH     LGT SNOW  19  12  74 SW13G24   29.80S WCI   6
INDIANA*       CLOUDY    19  16  86 W13G23    29.79R HAZE    WCI   7
LATROBE        LGT SNOW  19  12  73 SW12G23   29.82R WCI   7
WASHINGTON CO* CLOUDY    18  10  73 SW16G22   29.83S WCI   3
$$

PAZ004>006-010>012-017>019-024>028-033>037-041-042-045-046-049>053-101800-
CENTRAL PENNSYLVANIA

CITY           SKY/WX    TMP DP  RH WIND       PRES   REMARKS
BRADFORD       LGT SNOW  21  13  71 W10G22    29.60S WCI  10
DUBOIS         LGT SNOW  20  14  77 SW13G26   29.67S WCI   7
CLEARFIELD     LGT SNOW  22  14  71 SW18G28   29.70R WCI   7
JOHNSTOWN      MIX PCPN  18   8  65 W21G30    29.67F WCI   1
ALTOONA        CLOUDY    23  12  62 W17G25    29.72S WCI   9
STATE COLLEGE  FLURRIES  25  16  68 W14G29    29.70F WCI  13
WILLIAMSPORT   CLOUDY    30  20  66 W17       29.68F
SELINSGROVE    CLOUDY    30  16  56 W8        29.73S
FT INDIANTOWN  NOT AVBL
CAPITAL CITY   CLOUDY    31  16  54 W13       29.74S
HARRISBURG     CLOUDY    32  19  58 W20       29.74S
YORK           MOSUNNY   30  16  56 W12G21    29.75S
$$

PAZ038>040-043-044-047-048-054-055-060>062-067>071-101800-
EASTERN PENNSYLVANIA

CITY           SKY/WX    TMP DP  RH WIND       PRES   REMARKS
SCRANTON       LGT SNOW  30  22  72 SW16      29.61F
MOUNT POCONO   PTSUNNY   27  16  63 W15G25    29.55S
ALLENTOWN      CLOUDY    33  19  56 W16G24    29.67F
QUAKERTOWN*    NOT AVBL
READING        CLOUDY    32  20  61 W17G24    29.70F
LANCASTER      MOSUNNY   31  19  61 W16G25    29.73S
COATESVILLE    MOSUNNY   30  23  74 W15G22    29.72S
POTTSTOWN      CLOUDY    31  20  63 W12G20    29.71S
BLUE BELL        N/A     32  23  69 W7G17     29.69S
DOYLESTOWN     CLOUDY    32  20  61 W15G24    29.67S
WILLOW GROVE   NOT AVBL
NORTH PHILA    SUNNY     36  21  54 NW22G29   29.71S
PHILADELPHIA   PTSUNNY   35  22  58 W20G26    29.73S
$$



USA.gov is the U.S. government's official web portal to all federal, state and local government web resources and services.